[[{"header":{"parameterUnit":"m.s-1","parameterCategory":1,"la1":30.2991,"la2":30.254,"lo1":-89.0895,"lo2":-89.0444,"dy":0.0017,"dx":0.0017,"nx":28,"ny":28,"refTime":"2025-06-01T21:00:00:Z","depth":0,"parameterNumber":2,"parameterNumberName":"U-component_of_WINDS"},"data":[0,0,0,0,0,0,0,0,0,0,0,0,0,0,0,0,0,0,0,0,0,0,0,0,0,0,0,0,0,0,0,0,0,0,0,0,0,0,0,0,0,0,0,0,0,0,0,0,0,0,0,0,0,0,0,0,0,0,-6.7839,-6.784,0,-6.7911,-6.7912,-6.7913,-6.783,-6.7827,-6.7824,-6.7821,-6.7893,-6.7898,-6.7902,0,0,0,0,0,0,0,0,0,0,0,0,0,-6.7628,-6.7633,-6.7839,-6.784,-6.7841,-6.7911,-6.7912,-6.7913,-6.7831,-6.7827,-6.7823,-6.782,-6.7891,-6.7897,-6.7903,0,0,0,0,0,0,0,0,0,0,0,0,0,-6.7712,-6.7634,-6.7839,-6.7808,-6.7806,-6.7911,-6.7912,-6.7913,-6.7832,-6.7827,-6.7822,-6.7818,-6.7889,-6.7896,-6.7904,-6.8041,0,0,-6.7925,-6.7929,0,0,0,0,0,0,0,0,-6.7707,-6.772,-6.7812,-6.7811,-6.7809,-6.7857,-6.7864,-6.7956,-6.7833,-6.7822,-6.7821,-6.7816,-6.7885,-6.7892,-6.7915,-6.8044,-6.8047,-6.7926,-6.793,-6.7934,-6.7936,0,0,0,0,0,0,0,-6.7702,-6.7716,-6.7867,-6.7813,-6.7811,-6.779,-6.7797,-6.7881,-6.7878,-6.7823,-6.7817,-6.7827,-6.7883,-6.7909,-6.7917,-6.8048,-6.7926,-6.7932,-6.7937,-6.7939,-6.8292,-6.8296,0,0,0,0,0,0,-6.77,-6.7712,-6.7865,-6.7869,-6.7746,-6.7798,-6.7806,-6.7846,-6.7877,-6.7878,-6.7831,-6.7823,-6.7899,-6.7908,-6.7919,-6.808,-6.7933,-6.794,-6.7944,-6.8287,-6.8293,-6.8298,0,0,0,0,0,0,-6.7696,-6.7714,-6.7862,-6.7789,-6.7807,-6.7807,-6.7853,-6.785,-6.7876,-6.7883,-6.7882,-6.7858,-6.7895,-6.7909,-6.8011,-6.8081,-6.7943,-6.795,-6.8281,-6.8288,-6.8295,-6.8404,0,0,0,0,0,0,-6.769,-6.7713,-6.7766,-6.7791,-6.7811,-6.7954,-6.7857,-6.7855,-6.7889,-6.7879,-6.7908,-6.7909,-6.7893,-6.8001,-6.8018,-6.8088,-6.7956,-6.8274,-6.8284,-6.8293,-6.8394,-6.8414,-6.8432,0,0,0,0,0,-6.7683,-6.7793,-6.7769,-6.7787,-6.7876,-6.7958,-6.7969,-6.7949,-6.7895,-6.7947,-6.7952,-6.7908,-6.8072,-6.8012,-6.8031,-6.8104,-6.827,-6.8281,-6.8292,-6.8385,-6.841,-6.8431,0,0,0,0,0,0,-6.7774,-6.7796,-6.7769,-6.7891,-6.7924,-6.7944,-6.8009,-6.7976,-6.8024,-6.8013,-6.7986,-6.7993,-6.8101,-6.8113,-6.8047,-6.8238,-6.8161,-6.8177,-6.8226,-6.8249,-6.8268,-6.8261,-6.7962,0,0,0,0,0,-6.7809,-6.7875,-6.7889,-6.7996,-6.8013,-6.8009,-6.8044,-6.8026,-6.8058,-6.8071,-6.8083,-6.8115,-6.8174,-6.8213,-6.8267,-6.8397,-6.8401,-6.8457,-6.8475,-6.8491,-6.8504,-6.8572,-6.8596,-6.8335,-6.8335,-6.8335,0,0,-6.7881,-6.7901,-6.7943,-6.8015,-6.8037,-6.8105,-6.8021,-6.8096,-6.8145,-6.8082,-6.8178,-6.8189,-6.8224,-6.834,-6.8391,-6.8353,-6.8577,-6.8505,-6.8518,-6.8522,-6.8586,-6.861,-6.8632,-6.8343,-6.8342,-6.834,0,0,-6.8045,-6.8068,-6.8158,-6.8183,-6.822,-6.8216,-6.8238,-6.8264,-6.8269,-6.8366,-6.832,-6.8379,-6.848,-6.8506,-6.8533,-6.8709,-6.867,-6.8728,-6.8825,-6.8891,-6.8912,-6.893,-6.899,-6.9013,-6.8741,-6.8742,-6.8742,0,-6.8129,-6.8229,-6.8209,-6.8287,-6.8319,-6.8267,-6.8357,-6.8383,-6.8435,-6.8458,-6.8415,-6.8541,-6.8561,-6.8681,-6.8725,-6.8749,-6.8772,-6.8723,-6.8911,-6.8929,-6.8945,-6.9002,-6.9026,-6.8748,-6.8747,-6.8747,-6.8746,0,-6.833,-6.8401,-6.8469,-6.8521,-6.8561,-6.8646,-6.8637,-6.868,-6.866,-6.866,-6.876,-6.8782,-6.8839,-6.8867,-6.8848,-6.8985,-6.896,-6.8915,-6.8836,-6.8977,-6.903,-6.9052,-6.8758,-6.8755,-6.8753,-6.8752,0,0,-6.8552,-6.8593,-6.8618,-6.864,-6.8678,-6.8731,-6.8813,-6.887,-6.8907,-6.8945,-6.9012,-6.91,-6.9058,-6.9089,-6.9072,-6.9131,-6.9267,-6.9078,-6.9078,-6.911,-6.9418,-6.9449,-6.9475,-6.9242,-6.9247,-6.925,-6.9414,0,-6.8715,-6.8857,-6.8841,-6.8976,-6.9039,-6.8992,-6.9063,-6.9093,-6.9097,-6.9151,-6.9155,-6.9217,-6.9159,-6.9176,-6.9233,-6.9238,-6.9327,-6.9227,-6.9302,-6.9305,-6.9292,-6.9504,-6.9538,-6.9691,-6.9435,-6.9438,-6.9441,0,-6.8923,-6.897,-6.9111,-6.9138,-6.9164,-6.9229,-6.9279,-6.9333,-6.9366,-6.9364,-6.9399,-6.9372,-6.9454,-6.9377,-6.9487,-6.9419,-6.945,-6.9457,-6.9463,-6.9466,-6.9379,-6.951,-6.974,-6.9762,-6.9474,-6.9472,-6.9469,0,-6.9068,-6.9166,-6.9263,-6.9284,-6.9319,-6.9365,-6.9381,-6.941,-6.9446,-6.949,-6.9513,-6.9567,-6.9595,-6.9637,-6.9625,-6.9571,-6.9738,-6.966,-6.9738,-6.9738,-6.9772,-6.977,-7.0007,-6.9797,-6.9797,-6.9797,-6.9796,0,-6.925,-6.9338,-6.9328,-6.9387,-6.9484,-6.9466,-6.9562,-6.9572,-6.9599,-6.9659,-6.9622,-6.9679,-6.9661,-6.9717,-6.9709,-6.9801,-6.9815,-6.9815,-6.9811,-6.9816,-6.9816,-6.9833,-6.9821,-6.9803,-6.9801,-6.98,-6.9799,0,-6.9426,-6.9423,-6.9525,-6.9551,-6.9559,-6.9629,-6.965,-6.9706,-6.9707,-6.9784,-6.9801,-6.9803,-6.9867,-6.986,-6.9932,-6.9926,-7.004,-7.0025,-7.0028,-7.0024,-7.0101,-7.0093,-7.0355,-7.0388,-7.016,-7.0162,-7.0164,0,-6.9541,-6.9607,-6.964,-6.9678,-6.9697,-6.9759,-6.9795,-6.978,-6.9819,-6.9862,-6.9912,-6.9974,-7.0021,-7.0126,-7.0133,-7.0188,-7.0172,-7.026,-7.0179,-7.0183,-7.017,-7.0165,-7.0171,-7.0275,-7.0278,-7.028,-7.0281,0,-6.9744,-6.974,-6.9793,-6.9847,-6.9891,-6.9933,-6.997,-7.0003,-6.9992,-7.0038,-7.0103,-7.014,-7.0214,-7.0274,-7.0326,-7.0342,-7.031,-7.0307,-7.0328,-7.0332,-7.0331,-7.033,-7.0069,-7.0301,-7.0299,-7.0297,-7.0296,-7.0295,-6.9891,-6.9948,-6.9979,-7.004,-7.0067,-7.0103,-7.0156,-7.0165,-7.022,-7.0279,-7.0267,-7.034,-7.0372,-7.0438,-7.046,-7.0517,-7.0484,-7.0514,-7.0521,-7.0528,-7.0536,-7.0325,-7.0526,-7.0526,-7.0525,-7.0525,-7.0525,0,-7.009,-7.0109,-7.0165,-7.0219,-7.0267,-7.0235,-7.0275,-7.0316,-7.0381,-7.0414,-7.0462,-7.0537,-7.0596,-7.0609,-7.0665,-7.0708,-7.0694,-7.0723,-7.0718,-7.0722,-7.0563,-7.0539,-7.0733,-7.0733,-7.0733,-7.0733,-7.0733,-7.0733,-7.0199,-7.0293,-7.0292,-7.0399,-7.0416,-7.0488,-7.0514,-7.0546,-7.0572,-7.0658,-7.0707,-7.0715,-7.074,-7.0798,-7.085,-7.0852,-7.0873,-7.0907,-7.0904,-7.0754,-7.0733,-7.0713,-7.069,-7.0913,-7.0913,-7.1057,-7.1059,-7.106]},{"header":{"parameterUnit":"m.s-1","parameterCategory":1,"la1":30.2991,"la2":30.254,"lo1":-89.0895,"lo2":-89.0444,"dy":0.0017,"dx":0.0017,"nx":28,"ny":28,"refTime":"2025-06-01T21:00:00:Z","depth":0,"parameterNumber":3,"parameterNumberName":"V-component_of_WINDS"},"data":[0,0,0,0,0,0,0,0,0,0,0,0,0,0,0,0,0,0,0,0,0,0,0,0,0,0,0,0,0,0,0,0,0,0,0,0,0,0,0,0,0,0,0,0,0,0,0,0,0,0,0,0,0,0,0,0,0,0,3.1271,3.1272,0,3.1361,3.1362,3.1363,3.1425,3.1425,3.1426,3.1426,3.1512,3.1513,3.1515,0,0,0,0,0,0,0,0,0,0,0,0,0,3.1149,3.1151,3.1271,3.1272,3.1273,3.136,3.1362,3.1363,3.1424,3.1425,3.1426,3.1426,3.1511,3.1513,3.1515,0,0,0,0,0,0,0,0,0,0,0,0,0,3.1216,3.1151,3.1271,3.1314,3.1319,3.136,3.1362,3.1363,3.1424,3.1425,3.1426,3.1427,3.151,3.1513,3.1516,3.1518,0,0,3.1524,3.1525,0,0,0,0,0,0,0,0,3.1212,3.1221,3.1307,3.1312,3.1317,3.1382,3.135,3.1415,3.1424,3.1384,3.1426,3.1427,3.1468,3.1474,3.1489,3.1522,3.1526,3.1524,3.1526,3.1527,3.1528,0,0,0,0,0,0,0,3.1208,3.1217,3.1306,3.1308,3.1314,3.1328,3.1339,3.1363,3.142,3.1388,3.1393,3.1403,3.147,3.1486,3.1491,3.1527,3.1524,3.1527,3.1528,3.153,3.1569,3.1568,0,0,0,0,0,0,3.1197,3.1213,3.1303,3.1309,3.1266,3.133,3.1342,3.136,3.1421,3.1431,3.1402,3.1405,3.1481,3.1488,3.1495,3.1503,3.1527,3.153,3.1531,3.1569,3.1569,3.1568,0,0,0,0,0,0,3.1194,3.1204,3.13,3.1262,3.1276,3.1331,3.1352,3.1362,3.1378,3.1431,3.1441,3.1408,3.1482,3.1491,3.1513,3.1507,3.1531,3.1534,3.157,3.1569,3.1568,3.1518,0,0,0,0,0,0,3.119,3.1203,3.1205,3.1262,3.1277,3.1317,3.1352,3.1363,3.1383,3.1388,3.1439,3.1448,3.1483,3.1508,3.1515,3.1511,3.1536,3.1571,3.157,3.1569,3.1521,3.1516,3.1512,0,0,0,0,0,3.1186,3.1186,3.1205,3.1215,3.1282,3.1317,3.1325,3.1367,3.1382,3.1385,3.1419,3.1447,3.1506,3.151,3.1519,3.1515,3.1571,3.157,3.1569,3.1523,3.1517,3.1512,0,0,0,0,0,0,3.1124,3.1194,3.1216,3.1235,3.127,3.1327,3.1331,3.1359,3.1389,3.1392,3.1441,3.1452,3.1469,3.1494,3.1497,3.1521,3.1542,3.1542,3.1504,3.1499,3.1495,3.1488,3.1538,0,0,0,0,0,3.1113,3.1137,3.1196,3.1207,3.1224,3.1275,3.1291,3.1321,3.1358,3.1373,3.1409,3.1443,3.1469,3.1486,3.1513,3.1525,3.1537,3.1526,3.1522,3.1518,3.1517,3.1527,3.1524,3.1563,3.1563,3.1563,0,0,3.1089,3.1131,3.1143,3.1196,3.1227,3.125,3.1286,3.1309,3.1327,3.1375,3.14,3.1427,3.1468,3.1486,3.1495,3.1507,3.1509,3.1516,3.1513,3.1514,3.1525,3.1522,3.1518,3.1563,3.1563,3.1563,0,0,3.1059,3.1093,3.1107,3.1138,3.1185,3.1219,3.1222,3.1276,3.1297,3.1323,3.1361,3.1381,3.1425,3.1454,3.1474,3.1457,3.1484,3.1464,3.144,3.1449,3.1446,3.1444,3.1438,3.1436,3.1464,3.1464,3.1463,0,3.1024,3.1062,3.111,3.1131,3.1154,3.1202,3.1216,3.1243,3.1295,3.1309,3.1322,3.1381,3.1411,3.1437,3.1433,3.1447,3.1453,3.1459,3.1443,3.1441,3.1439,3.1435,3.1433,3.1461,3.1461,3.1462,3.1462,0,3.1017,3.1043,3.1048,3.1101,3.1124,3.1141,3.1191,3.1208,3.1236,3.1268,3.1294,3.1333,3.137,3.1378,3.1404,3.1408,3.1414,3.1434,3.1456,3.1432,3.1429,3.1428,3.1457,3.1458,3.1459,3.146,0,0,3.0949,3.103,3.1032,3.1057,3.1113,3.1134,3.1153,3.1192,3.1206,3.1241,3.1259,3.1296,3.1317,3.1339,3.1369,3.1377,3.1363,3.1397,3.1398,3.139,3.137,3.1355,3.1353,3.1381,3.1381,3.1381,3.1367,0,3.0929,3.0969,3.1013,3.1038,3.1063,3.111,3.1127,3.1163,3.1194,3.1219,3.1252,3.1279,3.1303,3.1317,3.1327,3.1362,3.1359,3.1364,3.1397,3.1398,3.1386,3.1351,3.1334,3.132,3.1366,3.1366,3.1366,0,3.091,3.0946,3.0973,3.103,3.1042,3.1057,3.1097,3.112,3.1162,3.1184,3.1211,3.1243,3.1266,3.1285,3.1317,3.1319,3.1335,3.1354,3.1355,3.136,3.138,3.1355,3.1316,3.1314,3.1364,3.1364,3.1364,0,3.0859,3.0914,3.0938,3.0958,3.1024,3.1034,3.1061,3.1104,3.1125,3.1159,3.1174,3.1209,3.1228,3.1254,3.1295,3.1306,3.1323,3.1345,3.1342,3.1341,3.1343,3.1342,3.1307,3.1352,3.1352,3.1352,3.1352,0,3.0832,3.0847,3.0917,3.0932,3.0951,3.1001,3.1017,3.1049,3.1087,3.1108,3.115,3.1168,3.1222,3.1246,3.1278,3.13,3.1308,3.1326,3.1335,3.1323,3.1321,3.1334,3.1337,3.1352,3.1352,3.1352,3.1352,0,3.0778,3.0826,3.0856,3.0917,3.0933,3.0944,3.0995,3.1011,3.1046,3.1072,3.1081,3.1134,3.1165,3.121,3.1253,3.1275,3.1293,3.1306,3.1279,3.1285,3.1279,3.1279,3.1251,3.125,3.1295,3.1294,3.1294,0,3.0758,3.0772,3.0835,3.0854,3.0881,3.091,3.0933,3.0982,3.1004,3.1054,3.1063,3.1099,3.113,3.1177,3.1219,3.1253,3.1268,3.1256,3.1273,3.1261,3.1269,3.1268,3.127,3.1251,3.125,3.125,3.1249,0,3.0718,3.0741,3.0774,3.0815,3.0841,3.0875,3.0911,3.0923,3.098,3.1002,3.1037,3.1061,3.1108,3.1142,3.1182,3.1209,3.1238,3.1244,3.1245,3.1233,3.1218,3.1228,3.1269,3.1244,3.1245,3.1245,3.1245,3.1246,3.0681,3.0697,3.0744,3.0779,3.0812,3.0845,3.0864,3.0902,3.0932,3.0976,3.1003,3.1036,3.1078,3.1136,3.1161,3.1187,3.1199,3.12,3.1201,3.12,3.1197,3.1214,3.1194,3.1194,3.1195,3.1195,3.1195,0,3.0644,3.0678,3.071,3.076,3.0788,3.0816,3.0857,3.0878,3.0907,3.0945,3.0976,3.1016,3.105,3.1095,3.1132,3.1144,3.1159,3.1152,3.1152,3.1158,3.1183,3.1179,3.114,3.114,3.114,3.114,3.114,3.114,3.0628,3.0656,3.0685,3.073,3.0763,3.0798,3.0819,3.085,3.0881,3.0924,3.0954,3.0984,3.1025,3.1066,3.1098,3.111,3.1122,3.1112,3.1128,3.1151,3.1156,3.1161,3.1157,3.1114,3.1114,3.1101,3.11,3.11]}]]